Regional Weather Roundup
Issued by NWS

Home | Current Version | Previous Version | Graphics & Text | Print | Product List | Glossary On
Versions: 1 2 3 4 5 6 7 8 9 10 11 12 13 14 15 16 17 18 19 20 21 22 23 24 25 26 27 28 29 30 31 32 33 34 35 36 37 38 39 40 41 42 43 44 45 46 47 48 49 50
000
ASUS43 KBIS 221410
RWRND

NORTH DAKOTA REGIONAL WEATHER ROUNDUP
NATIONAL WEATHER SERVICE BISMARCK ND
900 AM CDT SAT JUL 22 2017

NOTE: "FAIR" INDICATES FEW OR NO CLOUDS BELOW 12,000 FEET WITH NO
SIGNIFICANT WEATHER AND/OR OBSTRUCTIONS TO VISIBILITY.


NDZ001>003-009>011-017-221500-
NORTHWEST NORTH DAKOTA

CITY           SKY/WX    TMP DP  RH WIND       PRES   REMARKS
WILLISTON      SUNNY     70  46  42 W18       29.99S
MINOT          SUNNY     71  55  56 W14       29.93R
MINOT AFB      SUNNY     68  55  64 W10       29.91S
$$

NDZ018>021-031>035-040>046-221500-
SOUTHWEST NORTH DAKOTA

CITY           SKY/WX    TMP DP  RH WIND       PRES   REMARKS
BISMARCK       SUNNY     69  59  70 W8        29.97R
DICKINSON      SUNNY     68  48  48 W9        30.02R
GARRISON         N/A     69  55  60 NW8       29.95R
HETTINGER ARPT SUNNY     67  53  61 W7        30.06R
$$

NDZ004>008-012>016-024-026-027-054-221500-
NORTHEAST NORTH DAKOTA

CITY           SKY/WX    TMP DP  RH WIND       PRES   REMARKS
GRAND FORKS    SUNNY     74  69  85 W7        29.80R
GRND FRKS AFB  SUNNY     74  65  74 W12       29.82R
DEVILS LAKE    SUNNY     69  60  73 W13       29.89R
$$

NDZ022-023-025-028>030-036>039-047>053-221500-
SOUTHEAST NORTH DAKOTA

CITY           SKY/WX    TMP DP  RH WIND       PRES   REMARKS
FARGO          SUNNY     72  66  81 W9        29.85R
JAMESTOWN      SUNNY     71  64  78 W9        29.90R
$$





USA.gov is the U.S. government's official web portal to all federal, state and local government web resources and services.